Wind_Speed
28 26 25 24 22 21 20 19 19 19 20 20 18 17 14 12 12 12 12 13 13 12 12 12 14 15 14 16 15 15 17 18 19 19 22 25 24 22 22 23 24 23 22
31 27 25 25 23 22 20 19 18 16 17 17 16 14 13 12 10 11 12 14 15 14 14 15 18 20 20 18 17 19 19 20 19 20 24 24 22 21 22 21 23 22 22
31 29 28 25 24 23 20 18 18 16 14 14 14 14 13 12 10 11 13 14 15 14 14 15 17 20 18 16 21 20 22 24 21 18 20 20 23 19 21 21 21 22 22
32 30 29 26 25 23 21 18 18 16 14 13 13 13 12 12 12 14 13 15 14 15 15 16 17 17 16 18 21 21 22 23 24 19 14 18 20 19 20 20 20 22 22
31 30 28 26 23 21 20 17 16 14 13 13 12 11 12 13 15 15 15 14 15 15 17 16 15 19 19 22 21 17 18 18 15 18 11 15 19 19 19 20 20 20 19
29 30 27 25 22 21 19 17 15 13 12 12 11 11 12 13 14 14 14 14 16 15 16 16 17 18 21 23 20 19 20 18 20 15 10 13 18 20 17 17 18 18 20
23 28 26 23 22 20 18 17 15 14 13 12 11 11 11 11 12 13 12 13 14 14 15 15 16 17 20 22 19 16 16 18 16 10 9 11 17 16 17 17 17 18 18
23 24 24 22 21 20 18 17 15 13 12 12 12 10 9 9 10 10 11 12 13 13 14 13 14 16 19 22 19 16 13 15 13 6 8 13 14 15 16 16 16 17 17
24 21 21 22 21 19 18 17 15 14 13 13 12 10 9 8 8 9 10 11 12 12 11 12 12 14 16 19 20 18 14 17 10 6 7 13 15 14 15 16 16 17 16
25 24 24 21 21 20 18 17 15 14 13 13 11 11 9 7 6 8 9 9 10 11 11 11 11 12 14 16 17 20 13 15 15 7 10 11 14 14 15 15 16 16 16
16 18 23 21 21 19 17 17 16 14 13 13 12 10 10 10 8 6 7 9 7 9 10 10 10 12 14 13 19 20 14 13 14 12 9 9 12 15 16 15 16 16 16
16 19 20 21 22 21 18 15 15 14 12 11 10 10 8 6 6 2 5 3 4 6 9 9 9 9 12 13 16 20 15 13 15 13 11 9 11 13 15 16 16 16 16
20 21 16 15 18 18 16 14 12 14 13 10 11 9 8 7 7 5 4 1 6 6 9 7 8 9 11 10 10 15 13 11 12 15 14 11 12 12 14 15 16 16 16
29 25 19 14 14 21 18 12 9 9 11 12 8 8 8 6 4 7 1 6 11 7 4 6 7 10 11 10 11 9 7 10 5 18 20 15 16 15 16 16 15 16 16
29 26 23 19 14 20 18 11 15 11 8 10 10 5 8 7 3 3 5 6 4 4 7 4 7 8 8 12 12 8 9 7 8 9 20 18 17 19 16 15 15 15 15
28 28 27 23 16 18 18 11 11 11 9 11 13 9 7 11 6 4 5 9 6 9 13 10 9 8 6 9 8 10 11 9 7 13 20 16 20 20 18 17 16 15 16
32 31 31 26 20 24 23 13 11 9 10 16 12 10 9 10 12 10 7 11 12 8 8 10 11 11 11 8 8 11 14 13 13 13 14 17 20 20 21 20 19 16 14
29 29 30 26 24 27 27 24 19 17 11 15 15 13 9 12 13 13 12 11 16 13 9 8 10 9 8 9 9 9 14 17 15 15 13 15 18 20 22 22 21 19 18
28 31 30 28 24 19 29 29 25 23 13 13 15 13 11 12 10 8 13 12 12 12 12 12 11 6 7 8 10 12 14 18 19 18 20 19 20 22 22 24 24 22 24
20 34 25 22 20 19 17 21 22 25 21 12 8 12 11 13 12 9 7 14 14 11 12 9 7 6 5 4 7 11 12 16 17 17 21 22 21 20 22 24 26 29 28
25 20 24 26 24 22 23 23 20 21 28 24 16 16 15 16 15 14 11 12 14 12 13 8 6 6 6 4 6 9 11 12 15 17 20 23 24 20 20 22 23 29 30
28 29 26 29 29 28 25 23 22 16 19 15 23 18 21 23 20 17 17 15 14 12 10 9 10 7 8 9 9 9 7 13 18 16 20 22 22 22 23 22 21 26 27
29 32 31 28 28 27 30 23 22 19 20 21 22 24 23 22 25 22 21 17 15 13 12 11 10 9 10 12 10 8 7 7 10 19 21 23 23 23 25 25 24 22 25
31 31 31 32 29 27 32 30 29 28 28 28 23 26 24 24 24 24 24 23 18 16 14 14 12 12 11 13 14 14 15 9 7 5 18 22 22 23 25 30 28 24 25
30 32 31 32 33 29 26 36 33 33 29 28 27 26 28 28 28 28 21 21 21 20 17 16 19 18 14 14 14 12 14 17 16 13 8 18 24 24 25 30 32 29 27
30 32 32 33 33 30 25 30 37 35 31 29 25 26 29 27 27 27 27 24 24 23 20 15 17 20 17 16 11 12 15 15 17 23 21 15 17 25 27 27 33 32 31
Wind_Direction
163 153 152 146 143 138 138 138 128 120 119 118 116 116 113 106 100 97 97 99 100 103 105 107 105 115 120 117 107 109 105 105 106 111 112 108 107 103 104 106 107 108 107
156 153 151 148 147 141 141 141 140 131 120 115 111 108 101 94 91 99 106 105 102 101 107 109 111 115 116 110 108 111 108 104 100 109 115 112 106 103 111 108 108 111 109
154 150 148 146 146 142 141 139 139 138 129 117 111 107 97 98 98 108 112 108 107 105 109 111 116 115 113 112 117 116 114 105 97 90 110 108 114 112 116 112 110 115 112
152 149 148 143 143 143 142 137 138 135 128 122 115 111 93 90 97 115 120 112 108 108 112 116 117 116 111 119 119 115 116 116 103 97 94 116 116 117 118 118 114 120 116
153 151 148 145 146 147 146 143 141 138 135 130 124 118 93 92 96 113 115 115 112 111 117 117 119 115 114 119 118 115 112 106 104 125 88 130 118 118 119 121 120 122 121
155 154 150 149 148 148 149 148 147 143 141 136 128 121 104 99 105 108 115 118 113 114 119 120 117 122 122 123 118 111 109 119 126 124 108 129 130 124 121 124 123 122 123
149 154 151 151 150 149 150 149 150 149 145 138 131 128 113 103 110 110 115 118 118 119 121 124 124 127 131 136 121 108 115 124 121 125 113 133 132 132 129 127 127 129 128
144 156 152 154 153 152 152 153 153 150 146 140 134 135 125 110 112 114 118 117 120 122 125 128 133 133 131 142 135 128 119 125 145 156 150 152 137 142 143 133 133 130 128
158 156 162 159 158 156 156 155 154 154 148 145 142 138 133 128 119 115 120 124 126 123 131 136 136 138 134 141 147 139 131 138 154 177 183 160 149 149 147 144 137 133 132
164 166 167 169 163 160 157 155 158 151 155 155 146 141 133 123 118 119 119 125 128 131 132 133 135 135 140 142 145 149 147 158 154 145 154 157 150 149 149 149 143 137 134
152 170 171 174 163 159 157 157 156 157 160 160 158 142 129 122 110 103 137 117 132 128 127 133 137 136 135 141 150 160 155 155 155 171 145 154 158 159 158 154 150 149 140
162 159 170 175 166 162 159 162 160 159 155 155 159 142 129 160 159 111 127 150 137 134 128 131 142 147 144 139 157 166 167 161 155 176 178 175 179 169 162 162 155 154 147
165 168 170 159 177 166 161 168 170 163 160 158 144 142 120 111 130 146 143 309 169 157 150 107 156 148 161 157 174 179 206 198 219 178 186 190 187 173 165 164 158 160 154
169 185 180 176 164 167 176 181 199 179 175 150 128 149 147 155 112 102 105 128 142 152 161 160 146 169 172 191 206 180 253 246 231 193 202 206 192 192 175 169 166 169 162
184 188 186 180 172 174 179 190 170 151 158 157 173 162 147 161 148 96 139 147 145 219 245 224 199 208 207 196 223 222 230 175 177 195 182 188 198 203 190 175 177 173 166
180 188 191 188 182 177 187 196 180 178 155 190 215 200 191 200 195 162 161 170 192 233 228 237 213 238 261 277 236 199 226 243 212 176 177 195 202 209 200 188 185 179 172
185 192 195 187 183 178 200 203 201 196 194 200 210 207 204 206 207 202 192 189 205 213 186 205 214 233 258 249 257 225 226 234 225 193 184 193 199 203 210 205 192 195 188
181 193 190 193 187 188 184 190 199 193 221 219 215 222 216 208 223 223 214 200 202 211 226 242 253 260 277 264 263 244 223 226 226 216 206 205 199 199 204 209 201 197 199
185 194 201 200 195 202 207 206 198 197 191 204 222 231 229 219 221 232 238 227 220 220 222 223 238 254 257 266 251 237 226 217 224 230 226 221 212 211 211 210 211 209 206
185 195 200 196 205 205 209 209 208 202 198 203 226 208 218 227 230 244 256 237 236 230 228 223 248 209 238 249 244 236 230 222 231 230 230 231 224 213 223 220 214 214 217
203 198 202 198 201 206 211 211 210 208 212 206 207 237 247 237 244 254 265 257 232 221 231 236 247 243 248 243 259 233 231 234 245 229 227 230 221 217 216 216 219 216 217
200 206 210 212 215 220 218 217 221 220 209 212 218 236 242 250 245 257 261 262 233 219 226 229 231 237 241 227 234 233 235 239 234 224 224 227 227 222 216 216 210 215 218
204 207 213 217 219 224 225 218 217 213 220 224 217 232 239 249 248 256 265 260 233 225 225 236 236 234 234 231 232 220 200 217 230 235 228 225 231 224 218 218 220 212 219
207 213 219 221 222 226 223 218 217 221 223 221 223 230 240 248 250 254 263 257 242 237 230 239 234 243 237 237 234 233 237 227 231 248 234 233 232 228 224 220 222 224 225
212 215 223 226 227 230 221 221 226 230 231 223 225 232 239 243 246 252 258 243 240 240 241 245 253 252 249 244 241 245 237 245 239 240 262 236 231 230 228 225 221 218 228
219 219 224 228 233 234 234 226 227 230 233 227 224 225 234 242 252 253 257 248 243 241 238 271 262 250 242 246 238 251 246 246 249 239 241 248 243 233 222 222 218 218 218
Height
1529 1530 1532 1534 1536 1539 1542 1544 1547 1548 1550 1552 1553 1554 1556 1557 1558 1559 1559 1560 1561 1562 1563 1563 1565 1566 1567 1569 1570 1572 1573 1574 1574 1574 1576 1577 1578 1578 1579 1580 1581 1583 1584
1525 1530 1532 1534 1537 1540 1542 1545 1548 1550 1551 1553 1554 1556 1557 1558 1559 1560 1560 1561 1562 1563 1564 1565 1567 1568 1570 1572 1573 1574 1575 1577 1577 1577 1578 1579 1580 1581 1582 1583 1584 1586 1587
1526 1529 1532 1534 1537 1540 1543 1546 1549 1551 1553 1555 1556 1558 1559 1560 1560 1560 1561 1562 1563 1564 1566 1568 1570 1572 1574 1575 1575 1576 1577 1579 1580 1581 1582 1582 1582 1584 1585 1586 1587 1589 1590
1525 1529 1532 1534 1538 1542 1544 1547 1550 1552 1554 1556 1558 1559 1560 1561 1561 1561 1562 1563 1565 1566 1568 1570 1572 1574 1576 1576 1578 1579 1580 1580 1580 1582 1584 1585 1585 1586 1587 1588 1590 1591 1592
1527 1529 1532 1535 1538 1542 1545 1548 1551 1553 1555 1557 1559 1560 1561 1562 1563 1562 1563 1565 1567 1568 1570 1572 1574 1576 1578 1579 1580 1581 1582 1583 1583 1585 1586 1588 1588 1589 1591 1591 1592 1593 1594
1528 1531 1533 1536 1539 1542 1546 1549 1551 1553 1556 1558 1560 1561 1562 1563 1565 1565 1566 1567 1569 1570 1572 1574 1576 1578 1580 1581 1582 1583 1583 1585 1586 1587 1589 1590 1590 1592 1595 1595 1595 1596 1596
1530 1532 1534 1536 1540 1543 1546 1549 1551 1554 1556 1559 1561 1562 1564 1565 1566 1567 1569 1570 1571 1572 1574 1576 1578 1579 1582 1584 1584 1585 1586 1587 1588 1589 1591 1593 1593 1594 1596 1596 1597 1598 1599
1529 1533 1535 1538 1540 1544 1546 1549 1552 1554 1557 1559 1561 1563 1564 1566 1567 1569 1570 1572 1573 1575 1575 1576 1578 1580 1583 1586 1587 1587 1588 1590 1591 1593 1592 1593 1595 1597 1597 1598 1599 1600 1601
1528 1532 1536 1538 1541 1544 1547 1549 1552 1554 1557 1559 1560 1562 1565 1567 1568 1570 1572 1574 1575 1576 1577 1577 1580 1582 1585 1587 1589 1590 1590 1591 1594 1595 1594 1594 1595 1598 1599 1600 1601 1602 1603
1529 1532 1534 1538 1540 1543 1546 1549 1551 1554 1557 1559 1561 1563 1565 1567 1569 1571 1572 1574 1575 1577 1578 1579 1581 1583 1586 1587 1589 1591 1590 1591 1593 1596 1596 1597 1597 1598 1600 1601 1602 1603 1604
1529 1532 1534 1537 1540 1543 1546 1548 1551 1554 1557 1559 1562 1564 1566 1568 1570 1571 1573 1574 1576 1578 1579 1581 1582 1583 1585 1586 1588 1590 1590 1590 1591 1594 1597 1598 1599 1599 1601 1602 1603 1604 1605
1526 1531 1534 1537 1539 1542 1545 1547 1550 1553 1556 1559 1562 1564 1566 1568 1569 1572 1573 1574 1576 1578 1580 1581 1581 1583 1584 1585 1587 1589 1589 1591 1592 1593 1596 1599 1600 1600 1602 1603 1604 1605 1606
1523 1527 1532 1535 1538 1540 1544 1547 1550 1552 1554 1558 1561 1563 1566 1566 1569 1570 1572 1573 1575 1578 1579 1580 1581 1583 1584 1585 1586 1588 1591 1592 1592 1592 1595 1598 1600 1601 1603 1605 1605 1606 1607
1523 1525 1528 1532 1536 1538 1542 1546 1550 1551 1553 1555 1558 1561 1564 1566 1568 1569 1571 1573 1575 1577 1578 1579 1580 1582 1583 1583 1584 1588 1587 1583 1591 1589 1593 1596 1599 1601 1603 1605 1606 1607 1607
1522 1523 1526 1531 1535 1538 1541 1545 1548 1550 1552 1554 1557 1560 1562 1565 1567 1569 1571 1573 1574 1575 1577 1578 1579 1580 1581 1583 1584 1586 1586 1589 1589 1588 1591 1593 1596 1600 1602 1604 1606 1607 1608
1519 1521 1523 1528 1533 1537 1541 1544 1547 1549 1551 1553 1557 1560 1561 1564 1566 1568 1571 1572 1574 1575 1575 1577 1578 1579 1579 1581 1582 1584 1585 1586 1587 1588 1589 1592 1594 1598 1600 1602 1605 1607 1607
1516 1520 1521 1526 1530 1535 1540 1543 1545 1547 1551 1553 1555 1559 1561 1562 1564 1566 1569 1570 1571 1573 1574 1574 1576 1577 1578 1579 1580 1582 1582 1583 1584 1586 1588 1591 1592 1595 1598 1601 1603 1605 1606
1514 1517 1521 1525 1528 1532 1536 1541 1544 1547 1550 1552 1553 1556 1558 1561 1562 1564 1566 1568 1569 1571 1572 1574 1575 1576 1577 1577 1578 1579 1580 1581 1582 1584 1587 1589 1591 1593 1595 1598 1601 1603 1606
1513 1515 1519 1521 1526 1531 1534 1537 1541 1545 1548 1551 1553 1554 1557 1559 1560 1561 1563 1565 1567 1569 1570 1571 1572 1573 1572 1574 1573 1574 1577 1579 1579 1582 1584 1586 1589 1591 1593 1595 1598 1600 1603
1510 1513 1516 1518 1522 1528 1531 1535 1539 1543 1545 1548 1550 1552 1554 1556 1557 1559 1561 1561 1563 1565 1566 1566 1567 1570 1570 1570 1570 1571 1574 1576 1579 1580 1581 1583 1586 1587 1591 1593 1596 1597 1600
1510 1512 1514 1516 1519 1523 1527 1530 1534 1538 1542 1545 1548 1549 1550 1552 1554 1557 1558 1559 1561 1562 1563 1564 1566 1568 1567 1568 1569 1570 1571 1574 1573 1576 1579 1579 1582 1585 1587 1589 1592 1594 1597
1506 1509 1512 1514 1517 1520 1523 1527 1531 1535 1539 1542 1545 1546 1548 1549 1550 1553 1555 1557 1558 1560 1561 1563 1564 1565 1566 1566 1567 1567 1569 1571 1569 1570 1574 1575 1578 1580 1582 1585 1587 1590 1594
1501 1504 1507 1510 1514 1518 1520 1525 1529 1533 1536 1538 1541 1543 1544 1546 1547 1549 1551 1553 1555 1557 1559 1560 1562 1563 1563 1563 1564 1563 1565 1565 1567 1568 1570 1571 1573 1575 1578 1581 1583 1587 1589
1497 1501 1504 1508 1512 1516 1518 1521 1524 1527 1530 1533 1536 1539 1541 1543 1544 1546 1547 1549 1552 1553 1555 1557 1560 1561 1560 1560 1561 1561 1561 1562 1565 1565 1566 1568 1570 1572 1574 1576 1579 1582 1585
1493 1496 1499 1503 1507 1511 1514 1517 1520 1522 1526 1530 1534 1537 1538 1539 1541 1542 1545 1546 1548 1550 1551 1553 1555 1557 1557 1557 1557 1559 1560 1560 1563 1563 1563 1563 1565 1567 1569 1571 1575 1578 1582
1489 1492 1494 1497 1501 1505 1509 1512 1515 1517 1520 1525 1529 1530 1532 1535 1537 1538 1539 1541 1543 1545 1548 1549 1550 1550 1552 1553 1552 1555 1557 1557 1556 1559 1560 1560 1561 1562 1564 1568 1571 1575 1578